This is the latest recevied weather packets stored in our database for station/object K4ZZR. If no packets are shown the sender has not sent any weather packets the latest 10 day(s).
| Time | Temp. | Humidity | Pressure | Rain* | Wind** | Luminosity | Snow |
|---|---|---|---|---|---|---|---|
| 1777844657 | 21.11° C | 96% | 1014.6 hPa | 0 mm | - | 98 W/m² | - |
| 1777844354 | 21.11° C | 98% | 1014.5 hPa | 0 mm | - | 104 W/m² | - |
| 1777844052 | 21.11° C | 99% | 1014.5 hPa | 0 mm | - | 83 W/m² | - |
| 1777843748 | 21.11° C | 99% | 1014.7 hPa | 0 mm | - | 62 W/m² | - |
| 1777843446 | 20.56° C | 99% | 1014.9 hPa | 0 mm | - | 113 W/m² | - |
| 1777843143 | 21.11° C | 99% | 1015 hPa | 0 mm | - | 45 W/m² | - |
| 1777842840 | 21.11° C | 99% | 1015.2 hPa | 0 mm | - | 32 W/m² | - |
| 1777842535 | 21.11° C | 99% | 1014.9 hPa | 0 mm | - | 76 W/m² | - |
| 1777842233 | 20.56° C | 99% | 1015 hPa | 0 mm | - | 94 W/m² | - |
| 1777841927 | 20.56° C | 99% | 1015 hPa | 0.51 mm | - | 180 W/m² | - |
| 1777841625 | 20.56° C | 99% | 1015.1 hPa | 1.27 mm | - | 90 W/m² | - |
| 1777841321 | 20.56° C | 99% | 1015 hPa | 6.6 mm | - | 60 W/m² | - |
| 1777841018 | 20.56° C | 99% | 1015.1 hPa | 8.38 mm | - | 57 W/m² | - |
| 1777840715 | 20.56° C | 99% | 1015.1 hPa | 3.56 mm | - | 64 W/m² | - |
| 1777840413 | 20.56° C | 99% | 1015.1 hPa | 10.16 mm | - | 138 W/m² | - |
| 1777840110 | 20.56° C | 99% | 1015.3 hPa | 9.65 mm | - | 96 W/m² | - |
| 1777839808 | 20.56° C | 99% | 1015.3 hPa | 18.03 mm | - | 123 W/m² | - |
| 1777839506 | 20.56° C | 99% | 1015.4 hPa | 19.3 mm | - | 108 W/m² | - |
| 1777839202 | 20.56° C | 99% | 1015.7 hPa | 4.32 mm | - | 92 W/m² | - |
| 1777838900 | 20.56° C | 99% | 1015.3 hPa | 6.1 mm | - | 26 W/m² | - |
| 1777838596 | 20.56° C | 99% | 1015.4 hPa | 8.38 mm | - | 49 W/m² | - |
| 1777838293 | 20.56° C | 99% | 1015.2 hPa | 7.87 mm | - | 76 W/m² | - |
| 1777837990 | 20.56° C | 99% | 1015.2 hPa | 13.21 mm | - | 86 W/m² | - |
| 1777837687 | 20.56° C | 99% | 1015.2 hPa | 18.54 mm | - | 108 W/m² | - |
| 1777837383 | 20.56° C | 99% | 1015.2 hPa | 19.3 mm | - | 102 W/m² | - |
* Rain latest hour (hover to see other rain measurements)
** Current wind speed in m/s (hover to see current wind gust speed)